Location: Praha
(50.0830°N, 14.4670°E)
Time: 07:36:40
(UTC+02:00)

ISS - Pass Details

Date: 04 July 2022
Orbit: 414 x 420 km, 51.6° (Epoch: 02 July)

Event Time Altitude Azimuth Distance (km) Brightness Sun altitude
Exits shadow 04:08:05 - 261° (W) 2,050 -0.7 -6.7°
Reaches altitude 10° 04:09:27 10° 263° (W) 1,496 -1.4 -6.6°
Maximum altitude 04:12:48 75° 349° (NNW) 438 -3.6 -6.2°
Drops below altitude 10° 04:16:10 10° 76° (ENE) 1,502 0.1 -5.8°
Sets 04:18:17 0° 78° (ENE) 2,368 1.1 -5.6°
